Location: Trebic
(49.2170°N, 15.8830°E)
Time: 18:22:46
(UTC+02:00)

Vanguard 3 - All Passes

Search period start: 19 July 2019 00:00
Search period end: 29 July 2019 00:00
Orbit: 507 x 3264 km, 33.4° (Epoch: 19 July)

Date Brightness Start Highest point End Pass type
(mag) Time Alt. Az. Time Alt. Az. Time Alt. Az.
19 Jul - 02:35:24 10° S 02:43:32 20° SE 02:54:04 10° E visible
19 Jul - 04:42:50 10° SW 04:55:25 40° SSE 05:12:27 10° E daylight
19 Jul - 06:54:05 10° WSW 07:09:34 47° S 07:27:44 10° ESE daylight
19 Jul - 09:07:53 10° W 09:24:04 37° SSW 09:39:59 10° SSE daylight
19 Jul - 11:26:07 10° W 11:36:50 18° SW 11:46:40 10° SSW daylight
20 Jul - 03:30:09 10° SSW 03:40:31 31° SSE 03:55:02 10° E visible
20 Jul - 05:39:52 10° WSW 05:53:36 45° S 06:11:38 10° ESE daylight
20 Jul - 07:52:17 10° WSW 08:08:09 43° SSW 08:25:36 10° SE daylight
20 Jul - 10:07:40 10° W 10:21:56 27° SW 10:35:33 10° S daylight
21 Jul - 02:18:41 10° S 02:26:23 21° SE 02:36:41 10° E visible
21 Jul - 04:26:23 10° SW 04:38:09 40° SSE 04:54:50 10° ESE visible
21 Jul - 06:37:31 10° WSW 06:52:07 46° S 07:10:15 10° ESE daylight
21 Jul - 08:51:07 10° W 09:06:28 35° SSW 09:22:27 10° SSE daylight
21 Jul - 11:09:53 10° WSW 11:19:15 16° SW 11:28:13 10° SSW daylight
22 Jul - 01:11:26 10° SE 01:12:57 10° SE 01:14:32 10° ESE visible
22 Jul - 03:13:44 10° SSW 03:23:23 31° SSE 03:37:24 10° E visible
22 Jul - 05:23:28 10° WSW 05:36:18 45° S 05:54:01 10° ESE daylight
22 Jul - 07:35:42 10° WSW 07:50:38 41° SSW 08:08:03 10° SE daylight
22 Jul - 09:51:03 10° W 10:04:20 24° SW 10:17:39 10° S daylight
23 Jul - 02:02:10 10° S 02:09:22 21° SE 02:19:14 10° E visible
23 Jul - 04:10:05 10° SW 04:21:00 40° SSE 04:37:07 10° ESE visible
23 Jul - 06:21:06 10° WSW 06:34:44 44° S 06:52:35 10° SE daylight
23 Jul - 08:34:33 10° W 08:48:55 32° SSW 09:04:40 10° SSE daylight
23 Jul - 10:54:19 10° WSW 11:01:41 13° SW 11:08:59 10° SSW daylight
24 Jul - 00:53:59 10° SE 00:56:01 11° SE 00:58:13 10° ESE visible
24 Jul - 02:57:27 10° SSW 03:06:22 32° SSE 03:19:44 10° E visible
24 Jul - 05:07:12 10° WSW 05:19:06 44° S 05:36:16 10° ESE daylight
24 Jul - 07:19:16 10° WSW 07:33:11 38° SSW 07:50:16 10° SE daylight
24 Jul - 09:34:44 10° W 09:46:47 22° SW 09:59:22 10° S daylight
25 Jul - 01:45:49 10° S 01:52:28 21° SE 02:01:46 10° E visible
25 Jul - 03:53:55 10° SW 04:03:58 39° SSE 04:19:21 10° ESE visible
25 Jul - 06:04:49 10° WSW 06:17:28 42° S 06:34:45 10° SE daylight
25 Jul - 08:18:11 10° W 08:31:25 29° SSW 08:46:37 10° SSE daylight
25 Jul - 10:40:26 10° WSW 10:44:11 11° SW 10:47:58 10° SW daylight
26 Jul - 00:37:07 10° SE 00:39:12 11° SE 00:41:30 10° ESE visible
26 Jul - 02:41:19 10° SSW 02:49:30 31° SSE 03:02:02 10° ESE visible
26 Jul - 04:51:02 10° WSW 05:02:01 42° S 05:18:25 10° ESE daylight
26 Jul - 07:02:59 10° WSW 07:15:50 35° SSW 07:32:16 10° SE daylight
26 Jul - 09:18:47 10° WSW 09:29:17 19° SW 09:40:37 10° S daylight
27 Jul - 01:29:38 10° S 01:35:42 21° SE 01:44:19 10° ESE visible
27 Jul - 03:37:52 10° SW 03:47:05 38° SSE 04:01:32 10° ESE visible
27 Jul - 05:48:40 10° WSW 06:00:18 39° S 06:16:46 10° SE daylight
27 Jul - 08:02:03 10° WSW 08:14:02 26° SSW 08:28:15 10° SSE daylight
28 Jul - 00:20:35 10° SSE 00:22:31 11° SE 00:24:39 10° ESE visible
28 Jul - 02:25:18 10° SW 02:32:45 31° SSE 02:44:21 10° ESE visible
28 Jul - 04:35:01 10° WSW 04:45:04 39° S 05:00:28 10° ESE visible
28 Jul - 06:46:54 10° WSW 06:58:36 32° SSW 07:14:03 10° SSE daylight
28 Jul - 09:03:23 10° WSW 09:11:54 16° SW 09:21:14 10° SSW daylight
